Location: Ariel
(45.9570°N, 122.5700°W)
Time: 08:21:25
(UTC-07:00)

Tiros 1 - Pass Details

Date: 22 July 2019
Orbit: 631 x 664 km, 48.4° (Epoch: 23 August)

Event Time Altitude Azimuth Distance (km) Brightness Sun altitude
Rises 19:15:35 0° 286° (WNW) 2,995 12.5 14.5°
Reaches altitude 10° 19:18:20 10° 272° (W) 2,076 11.9 14.1°
Maximum altitude 19:22:04 23° 221° (SW) 1,399 9.3 13.5°
Drops below altitude 10° 19:25:46 10° 170° (S) 2,055 9.5 12.8°
Sets 19:28:29 0° 155° (SSE) 2,956 10.2 12.4°
